This is the latest recevied weather packets stored in our database for station/object N8BAP. If no packets are shown the sender has not sent any weather packets the latest 10 day(s).
| Time | Temp. | Humidity | Pressure | Rain* | Wind** | Luminosity | Snow |
|---|---|---|---|---|---|---|---|
| 1788020028 | 26.67° C | 67% | 1028.3 hPa | 0 mm | - | 596 W/m² | - |
| 1788019728 | 26.67° C | 63% | 1028.2 hPa | 0 mm | - | 582 W/m² | - |
| 1788019422 | 27.22° C | 67% | 1028.1 hPa | 0 mm | - | 628 W/m² | - |
| 1788019120 | 27.22° C | 65% | 1028.2 hPa | 0 mm | - | 649 W/m² | - |
| 1788018819 | 27.22° C | 67% | 1028.3 hPa | 0 mm | - | 647 W/m² | - |
| 1788018515 | 26.67° C | 67% | 1028.3 hPa | 0 mm | - | 655 W/m² | - |
| 1788018214 | 25.56° C | 68% | 1028.1 hPa | 0 mm | - | 697 W/m² | - |
| 1788017910 | 25.56° C | 69% | 1028.3 hPa | 0 mm | - | 702 W/m² | - |
| 1788017606 | 25.56° C | 75% | 1028 hPa | 0 mm | - | 674 W/m² | - |
| 1788017303 | 25.56° C | 69% | 1028 hPa | 0 mm | - | 655 W/m² | - |
| 1788016999 | 25° C | 71% | 1028.1 hPa | 0 mm | - | 659 W/m² | - |
| 1788016698 | 25° C | 73% | 1028.1 hPa | 0 mm | - | 691 W/m² | - |
| 1788016396 | 25° C | 74% | 1027.9 hPa | 0 mm | - | 652 W/m² | - |
| 1788016090 | 24.44° C | 76% | 1028 hPa | 0 mm | - | 593 W/m² | - |
| 1788015788 | 24.44° C | 77% | 1028 hPa | 0 mm | - | 578 W/m² | - |
| 1788015479 | 23.89° C | 76% | 1028.1 hPa | 0 mm | - | 586 W/m² | - |
| 1788015174 | 23.89° C | 77% | 1028 hPa | 0 mm | - | 532 W/m² | - |
| 1788014871 | 23.89° C | 76% | 1028.3 hPa | 0 mm | - | 441 W/m² | - |
| 1788014566 | 23.33° C | 77% | 1028.1 hPa | 0 mm | - | 442 W/m² | - |
| 1788014262 | 23.33° C | 76% | 1028 hPa | 0 mm | - | 493 W/m² | - |
| 1788013956 | 23.33° C | 77% | 1028.3 hPa | 0 mm | - | 517 W/m² | - |
| 1788013651 | 23.33° C | 77% | 1028.3 hPa | 0 mm | - | 512 W/m² | - |
| 1788013340 | 22.78° C | 77% | 1028.2 hPa | 0 mm | - | 493 W/m² | - |
| 1788013040 | 22.78° C | 78% | 1028.2 hPa | 0 mm | - | 461 W/m² | - |
| 1788012733 | 22.78° C | 79% | 1028.2 hPa | 0 mm | - | 461 W/m² | - |
* Rain latest hour (hover to see other rain measurements)
** Current wind speed in m/s (hover to see current wind gust speed)